STARLINK-31526, 59016

Orbit data source: Space-Track

STARLINK-31526, 59016 is a payload satellite owned by SpaceX/Seattle (US) in LEO that was launched on Fri, 23 Feb 2024 UTC via an FALCON 9 launch vehicle from the Air Force Western Test Range (AFWTR). Payload-class satellites include a variety of spacecraft equipped with specific instruments for various scientific and technological missions. These include communications satellites like Starlink; space stations such as the ISS; scientific satellites like the Hubble; Earth observation satellites from companies like Planet Labs, Umbra, and HawkEye 360; GPS; miniature CubeSats for education and research; and military/defense satellites.

Loading next visibility...
Identifier
59016, 2024-036U
Orbit
LEO
Country
Flag of USUS
Related business
Manufacturer
SpaceX/Seattle
Mission
Operational Commercial Communications
Bus & Motor
STARLINK V2M, Unknown motor
Mass
730 kg wet, ~700 kg dry
Launch date (UTC)
2024-02-23 (2 years ago)
Launch vehicle
FALCON 9
Launch site
Air Force Western Test Range (AFWTR)
Object type
Payload
Rocket body
Debris
Shape & HBR
Box + 2 Pan, 17.7 m
Radar Cross Section
33.884 m², Large (>1 m²)

Expand to show TLE details & history
Last TLE update: 3 days ago

TLE from 3 days ago
0 STARLINK-31526
1 59016U 24036U   26170.62761754 -.00001325  00000-0 -30922-4 0  9993
2 59016  53.1604 298.7899 0001169 102.5973 257.5160 15.31707728131291
Epoch: 2026-06-19T15:03Z
TLE epoch observation values (Epoch: 2026-06-19T15:03:46.155Z)
Latitude
0.00004°
Longitude
164.99375°
Altitude
471.79 km
Speed
7.631 km/s
True Right ascension
19h 55m 09s
True Declination
0° 00' 00"
Sunlit
Object was in full shadow at epoch
Visualization orbit readout
Latitude
Unknown
Longitude
Unknown
Altitude
Unknown
Speed
Unknown
Apparent Right ascension
Unknown
Apparent Declination
Unknown
Sunlit
N/A
Visualization observer readout
Local Sidereal Time
21:26:26
Azimuth
Unknown
Elevation
Unknown
Doppler factor
Unknown
Orbital elements
Apogee altitude
471.774 km
Perigee altitude
470.173 km
Semi-major axis
6,849.11 km
Eccentricity
0.00012
Inclination
53.1604°
RAAN
298.7899°
Arg. of periapsis
102.5973°
True anomaly
257.50292°
Mean anomaly
257.516°
Eccentric anomaly
257.50946°
Mean motion
3.82906 °/min
Orbital period
94.02 mins
BSTAR
-0.000030922
Loading maneuver chart data...
Computing Atmospheric mass density...
Loading historical data...
Loading historical data...
Loading historical data...
Loading historical data...
Loading historical data...
Loading historical data...
Loading historical data...

Documentation

Showing up to 5 results
|